Content
SEND FEEDBACK

Daily
Averages
Monthly
Summary
United States of America

GUSTAVUS, ALASKA


Home > North America > United States > Alaska
Elevation: 10 meters     Latitude: 58 25N     Longitude: 135 42W

WEATHER
 
SELECT A DAY
Number of Records: 435,052;   Date Range: 1/1/95 - 12/23/14
 
SHARE

PRINT THIS DATA

[ ← Previous Day ]
WEATHER ALMANAC - 31 JANUARY, 2013
[ Next Day → ]
[ °F ]   °C
Weather ElementAverageHighLow
Temperature0.3 °C2 °C (1:16 pm)-2 °C (7:16 am)
Dewpoint-1.7 °C1 °C (4:16 pm)-4 °C (7:16 am)
Humidity86.7 %93 % (2:36 am)81 % (4:56 am)
Barometer1014.6 hPa1019 hPa (11:16 pm)1011.5 hPa (4:36 am)
Wind Speed1.1 km/h11.1 km/h (10:16 pm)
Weather ElementAverage
Visibility11.3 km
Wind DirectionNE (39.7 °)

Weather ElementTotal
Precipitation---
Heating Degree Days18.3 (Base 18.3)
Averaged from 69 records on 31 January, 2013
WEATHER CONDITIONS BREAKOUT
WIND DIRECTION BREAKOUT
WEATHER BY HOUR - 31 JANUARY, 2013
[ °F ]   °C
Local TimeTemperatureDewpointHumidityBarometerVisibilityWind DirectionWind SpeedGust SpeedPrecipitationEventsConditions
12:36 AM-1 °C-3 °C86 %1012.2 hPa16.1 kmCalmOvercast
12:56 AM-1 °C-3 °C86 %1012.2 hPa3.2 kmCalmOvercast
1:16 AM-1 °C-3 °C86 %1012.2 hPa11.3 kmCalmOvercast
1:36 AM-1 °C-3 °C86 %1012.2 hPa0.3 kmCalmOvercast
1:56 AM-1 °C-3 °C86 %1012.2 hPa11.3 kmCalmOvercast
2:16 AM-1 °C-3 °C86 %1012.2 hPa16.1 kmCalmOvercast
2:36 AM-1 °C-2 °C93 %1011.9 hPa16.1 kmCalmOvercast
2:56 AM-1 °C-3 °C86 %1011.9 hPa16.1 kmCalmOvercast
3:16 AM-1 °C-3 °C86 %1011.9 hPa16.1 kmCalmOvercast
3:36 AM0 °C-2 °C87 %1011.9 hPa16.1 kmCalmOvercast
3:56 AM-1 °C-3 °C86 %1011.9 hPa16.1 kmCalmOvercast
4:16 AM-1 °C-3 °C86 %1011.9 hPa16.1 kmCalmOvercast
4:36 AM1 °C-1 °C87 %1011.5 hPa16.1 kmCalmOvercast
4:56 AM1 °C-2 °C81 %1011.5 hPa16.1 kmCalmOvercast
5:16 AM-1 °C-3 °C86 %1011.5 hPa16.1 kmCalmOvercast
5:36 AM-1 °C-3 °C86 %1011.9 hPa16.1 kmCalmOvercast
5:56 AM-1 °C-3 °C86 %1011.9 hPa16.1 kmCalmOvercast
6:16 AM-1 °C-3 °C86 %1011.9 hPa16.1 kmCalmOvercast
6:36 AM-1 °C-3 °C86 %1011.9 hPa16.1 kmCalmMostly Cloudy
6:56 AM-1 °C-3 °C86 %1011.9 hPa4 kmCalmMostly Cloudy
7:16 AM-2 °C-4 °C86 %1011.9 hPa1.9 kmCalmOvercast
7:36 AM-2 °C-4 °C86 %1012.2 hPa1.3 kmCalmOvercast
7:56 AM-2 °C-4 °C86 %1012.2 hPa0.3 kmCalmOvercast
8:16 AM-2 °C-4 °C86 %1012.2 hPa0.3 kmCalmOvercast
8:36 AM-1 °C-3 °C86 %1012.5 hPa0.3 kmCalmOvercast
8:56 AM-2 °C-4 °C86 %1012.9 hPa0.3 kmCalmOvercast
9:16 AM-2 °C-4 °C86 %1013.2 hPa0.3 kmCalmOvercast
9:36 AM-1 °C-3 °C86 %1013.5 hPa0.3 kmCalmOvercast
9:56 AM-1 °C-3 °C86 %1013.5 hPa0.3 kmCalmOvercast
10:16 AM-1 °C-2 °C93 %1013.9 hPa2.4 kmCalmOvercast
10:36 AM0 °C-2 °C87 %1013.9 hPa2.9 kmCalmOvercast
10:56 AM1 °C-1 °C87 %1013.9 hPa6.4 kmCalmOvercast
11:16 AM1 °C-1 °C87 %1014.2 hPa16.1 kmCalmOvercast
11:36 AM1 °C-1 °C87 %1014.2 hPa16.1 kmCalmOvercast
11:56 AM1 °C-1 °C87 %1014.2 hPa4.8 kmCalmMostly Cloudy
12:16 PM1 °C-1 °C87 %1014.2 hPa12.9 kmCalmOvercast
12:36 PM1 °C-1 °C87 %1014.6 hPa16.1 kmCalmOvercast
12:56 PM1 °C0 °C93 %1014.6 hPa16.1 kmCalmOvercast
1:16 PM2 °C0 °C87 %1014.9 hPa4.8 kmCalmOvercast
1:36 PM2 °C0 °C87 %1015.2 hPa16.1 kmCalmOvercast
1:56 PM2 °C0 °C87 %1015.2 hPa16.1 kmCalmOvercast
2:16 PM2 °C0 °C87 %1015.2 hPa12.9 kmESE (110°)5.6 km/hOvercast
2:36 PM2 °C0 °C87 %1015.6 hPa9.7 kmEast (100°)5.6 km/hOvercast
2:56 PM2 °C-1 °C81 %1015.6 hPa16.1 kmCalmOvercast
3:16 PM2 °C0 °C87 %1015.6 hPa14.5 kmCalmOvercast
3:36 PM2 °C0 °C87 %1015.9 hPa16.1 kmCalmOvercast
3:56 PM2 °C0 °C87 %1015.9 hPa16.1 kmCalmOvercast
4:16 PM2 °C1 °C93 %1015.9 hPa16.1 kmESE (110°)9.3 km/hOvercast
4:36 PM2 °C0 °C87 %1015.9 hPa16.1 kmCalmOvercast
5:16 PM2 °C-1 °C81 %1016.3 hPa16.1 kmCalmOvercast
5:36 PM2 °C0 °C87 %1016.3 hPa16.1 kmENE (70°)5.6 km/hOvercast
6:16 PM2 °C0 °C87 %1016.3 hPa16.1 kmCalmOvercast
6:36 PM1 °C-1 °C87 %1016.6 hPa16.1 kmCalmOvercast
6:56 PM1 °C-1 °C87 %1016.6 hPa16.1 kmCalmOvercast
7:16 PM1 °C-1 °C87 %1016.6 hPa16.1 kmNNW (340°)5.6 km/hOvercast
7:36 PM1 °C-1 °C87 %1016.9 hPa16.1 kmCalmOvercast
7:56 PM1 °C-1 °C87 %1016.9 hPa16.1 kmCalmOvercast
8:16 PM1 °C-1 °C87 %1017.3 hPa16.1 kmNorth (350°)5.6 km/hOvercast
8:36 PM1 °C-1 °C87 %1017.3 hPa16.1 kmCalmOvercast
8:56 PM1 °C-1 °C87 %1017.6 hPa9.7 kmCalmOvercast
9:16 PM1 °C-1 °C87 %1017.6 hPa8 kmNNW (340°)5.6 km/hOvercast
9:36 PM1 °C-1 °C87 %1017.9 hPa12.9 kmNNW (340°)5.6 km/hOvercast
9:56 PM1 °C-1 °C87 %1018.3 hPa12.9 kmNNW (330°)9.3 km/hOvercast
10:16 PM1 °C-1 °C87 %1018.3 hPa16.1 kmNNW (330°)11.1 km/hOvercast
10:36 PM1 °C-1 °C87 %1018.3 hPa14.5 kmNW (320°)7.4 km/hOvercast
10:56 PM2 °C0 °C87 %1018.6 hPa8 kmCalmOvercast
11:16 PM1 °C-1 °C87 %1019 hPa4 kmCalmOvercast
11:36 PM1 °C-1 °C87 %1019 hPa4 kmCalmOvercast
11:56 PM1 °C-1 °C87 %1019 hPa4 kmCalmOvercast
Hourly data recorded from PAGS, located 0 kilometers away from Gustavus, Alaska







STORIES FROM OUR PARTNERS